Погода в Новоульяновске

Россия / Ульяновская область     54°09′06″N   48°23′05″E
темп.,
°C
ветер,
м/с
пор.,
м/с
влажн.,
%
обл.,
%
осадки,
мм/ч
давл.,
гПа
погр.,
м
14 июня, пн
пн1401:00+15ююв228566 0.0 101415
04:00+15ююз2285100 0.0 101424
07:00+17юз2285100 0.0 101558
10:00+19з2381100 0.0 1016163
13:00+20ссз1175100 0.0 1016229
16:00+20с227498 0.1 1016228
19:00+20сз227977 0.3 101530
22:00+19всв1184100 0.8 101511
15 июня, вт
вт1501:00+17св0187100 0.0 101511
04:00+16всв1192100 0.0 101411
07:00+16юв2295100 0.1 101531
10:00+17св2394100 0.2 101593
13:00+19вюв3583100 0.0 1014270
16:00+22вюв357097 0.0 1012468
19:00+21в46805 0.4 101191
22:00+19всв4789100 0.4 101093
16 июня, ср
ср1601:00+17св2391100 0.0 100826
04:00+16всв229069 0.0 100725
07:00+17вюв248532 0.1 100781
10:00+19ююв347793 0.1 1006193
13:00+22ю566955 0.0 1006431
16:00+23ю346515 0.0 1006531
19:00+21ююз467829 0.1 1006205
22:00+18сз8139280 1.8 1007257
17 июня, чт
чт1701:00+17ссз7139342 0.1 1010344
04:00+17ссз81186100 0.1 1012337
07:00+15ссз713800 0.0 1015475
10:00+17ссз710630 0.0 1016522
13:00+19ссз710520 0.0 1017663
16:00+19с79543 0.0 1018753
19:00+18ссз58611 0.0 1019394
22:00+16сз35706 0.0 102061
18 июня, пт
пт1801:00+15ссз34750 0.0 102161
04:00+14ссз35762 0.0 1022106
07:00+15с46700 0.0 1023167
10:00+17с56620 0.0 1024310
13:00+19ссв34577 0.0 1024577
16:00+19с34560 0.0 1024612
19:00+19с35634 0.0 1024246
22:00+18зсз226923 0.0 102513